Other Public Products
Issued by NWS Grand Forks, ND

Home | Current Version | Previous Version | Graphics & Text | Print | Product List | Glossary On
Versions: 1 2 3 4 5 6 7 8 9 10 11 12 13 14 15 16 17 18 19 20 21 22 23 24 25 26 27 28 29 30 31 32 33 34 35 36 37 38 39 40 41 42 43 44 45 46 47 48 49 50
000
FPUS83 KFGF 300531
OPUFGF
PRAIRIE TO PINES WEATHER ROUNDUP
NATIONAL WEATHER SERVICE EASTERN NORTH DAKOTA/GRAND FORKS ND
1200 AM CDT SAT JUL 30 2016

 **SATELLITE DATA USED TO AUGMENT SKY COVER AT AUTOMATED STATIONS**
 *****  WEATHER ACROSS EASTERN NORTH DAKOTA  *****

CITY           SKY/WX    TMP DP  RH WIND       PRES   REMARKS
GRAND FORKS    CLEAR     64  57  78 SE3       29.98F
GRAND FORKS AF CLEAR     61  58  89 S3        29.99F
GRAND CITY NWS NOT AVBL
BUXTON           N/A     69  64  83 SE3         N/A
DEVILS LAKE    CLOUDY    69  63  81 SE7       29.99F
FARGO          CLOUDY    70  63  78 S7        30.00F
WAHPETON ARPT  CLOUDY    66  61  82 SE6       30.02S
$$

 *****  WEATHER ACROSS CENTRAL AND WESTERN NORTH DAKOTA  *****

CITY           SKY/WX    TMP DP  RH WIND       PRES   REMARKS
JAMESTOWN      CLEAR     65  62  90 SE6       30.00S
BISMARCK       MOCLDY    66  61  84 NE6       29.97S
MINOT          PTCLDY    68  61  78 SE5       29.95F
MINOT AFB      CLEAR     62  59  87 CALM      29.94S
GARRISON         N/A     67  64  90 SE3       29.96S
WILLISTON      CLEAR     66  57  72 CALM      29.96S
DICKINSON      CLEAR     61  58  90 SE7       29.96F
HETTINGER      CLEAR     64  58  80 SE3       29.99S
$$

 *****  OTHER OBSERVATIONS NORTHEAST NORTH DAKOTA  *****

CITY           SKY/WX    TMP DP  RH WIND       PRES   REMARKS
WALHALLA       FAIR      63  57  82 S3        29.98S
LANGDON        MOCLDY    61  59  94 SE6       30.00F
CAVALIER       FAIR      59  57  94 CALM      29.98S
GRAFTON        FAIR      63  59  88 S5        30.00S
CANDO          CLOUDY    63  63 100 SE6       30.00S
FORT TOTTEN      N/A     67  61  81 S7        29.95S
ROLLA          FAIR      59  59 100 S3        30.00S
RUGBY          NOT AVBL
 ***** THE ABOVE OBSERVATIONS ARE NON NWS ARE NOT QUALITY
        CONTROLLED AND MAY MIS-REPORT RAIN FOR SNOW...
$$

 *****  OTHER OBSERVATIONS SOUTHEAST NORTH DAKOTA *****

CITY           SKY/WX    TMP DP  RH WIND       PRES   REMARKS
COOPERSTOWN    NOT AVBL
VALLEY CITY    CLOUDY    66  66 100 SE7       30.03S
OAKES            N/A    N/A N/A N/A MISG        N/A
GWINNER        FAIR      64  63  94 S6        30.02R
SHEYENNE NWR     N/A     64  62  93 SE3       29.95S
BUFFALO          N/A     63  60  91 SE8         N/A
WYNDMERE         N/A     68  64  88 SE3         N/A
 ***** THE ABOVE OBSERVATIONS ARE NON NWS ARE NOT QUALITY
       CONTROLLED AND MAY MIS-REPORT RAIN FOR SNOW...
$$

  *****  WEATHER ACROSS NORTHERN MINNESOTA  *****

CITY           SKY/WX    TMP DP  RH WIND       PRES   REMARKS
FLAG ISLAND    PTCLDY    72  59  64 CALM      29.99F
WARROAD        PTCLDY    64  61  88 CALM      30.01F
ROSEAU         PTCLDY    63  57  82 CALM      30.01S
HALLOCK        CLEAR     61  55  82 SE5       29.98F
THF RVR FALLS  PTCLDY    57  55  93 SE3       30.02S
HALSTAD          N/A     66  61  84 S5          N/A
FOSSTON        CLOUDY    55  46  71 CALM      30.03F
BAUDETTE       CLEAR     63  54  72 S6        30.02S
WASKISH        CLOUDY    57  57 100 CALM      30.04S
CROOKSTON      PTCLDY    61  55  82 SE5       30.01S
$$
  *****  WEATHER ACROSS CENTRAL AND WEST MINNESOTA  *****

CITY           SKY/WX    TMP DP  RH WIND       PRES   REMARKS
BEMIDJI        PTCLDY    65  60  82 S7        30.04S
PARK RAPIDS    PTCLDY    66  60  81 CALM      30.06R
WADENA         PTCLDY    63  61  94 CALM      30.05F
DETROIT LAKES  PTCLDY    68  63  83 SE5       30.05F
MOORHEAD       CLOUDY    66  64  94 SE3       30.02S
FERGUS FALLS   MOCLDY    66  63  88 SE6         N/A
ELBOW LAKE     CLOUDY    66  62  89 E5        30.04F
MORRIS MN      CLEAR     63  61  94 SE5       30.04S
STAPLES        CLOUDY    64  55  72 CALM      30.06S
WHEATON        CLOUDY    70  63  78 S7        30.04S
$$
  *****  WEATHER ELSEWHERE ACROSS MINNESOTA  *****

CITY           SKY/WX    TMP DP  RH WIND       PRES   REMARKS
DULUTH         CLEAR     57  53  86 E5        30.08S
INTRNTL FALLS  PTCLDY    61  56  83 CALM      30.04R
ELY            CLEAR     57  48  72 CALM      30.09S
CLOQUET        CLEAR     52  48  87 CALM      30.08S
BRAINERD       CLOUDY    64  55  72 CALM      30.07R
HIBBING        CLEAR     50  50 100 NW3       30.09R
ALEXANDRIA     PTCLDY    66  59  78 S6        30.07S
SAINT CLOUD    CLEAR     58  58 100 CALM      30.05S
MINNEAPOLIS    MOCLDY    70  57  63 N3        30.04R
$$

  *****  WEATHER ACROSS SOUTH DAKOTA  *****

CITY           SKY/WX    TMP DP  RH WIND       PRES   REMARKS
SIOUX FALLS    PTCLDY    63  55  75 E5        30.06R
BROOKINGS      CLEAR     63  57  81 SE7       30.06S
WATERTOWN      CLEAR     64  56  75 SE7       30.05S
HURON          MOCLDY    68  55  63 SE10      30.02S
SISSETON         N/A     64  60  87 S6        30.02S
ABERDEEN       PTCLDY    66  59  78 SE8       30.01R
MITCHELL       CLEAR     65  56  72 SE8       30.04S
PIERRE         CLEAR     69  56  62 SE12      29.98S
MOBRIDGE       CLEAR     69  55  60 SE8       29.96S
RAPID CITY     CLEAR     60  54  80 CALM      30.02S
$$

  *****  SOME WEATHER IN NEARBY STATES *****

CITY           SKY/WX    TMP DP  RH WIND       PRES   REMARKS
GLASGOW MT     CLEAR     65  56  72 E7        29.94S
GREAT FALLS MT CLEAR     69  48  47 E8        29.95S
CHEYENNE WY    PTCLDY    62  54  74 S12       30.22R
SCOTTSBLUFF NE CLEAR     61  56  83 NE5       30.11R
OMAHA NE       CLOUDY    66  61  84 CALM      30.04S
DES MOINES IA  PTCLDY    68  64  87 N5        30.00R
DAVENPORT IA   CLOUDY    69  66  90 E8        29.97S
CHICAGO IL     CLOUDY    71  67  87 VRB7      29.95S
EAU CLAIRE WI  CLEAR     63  61  93 CALM      30.03R
LA CROSSE WI   CLOUDY    68  65  90 N3        30.01S
$$

  *****  SOME NATIONAL WEATHER *****

CITY           SKY/WX    TMP DP  RH WIND       PRES   REMARKS
LA GUARDIA NY  CLOUDY    78  69  73 S10       29.92S
RALEIGH NC     PTCLDY    77  71  82 CALM      29.96F
ATLANTA GA     CLOUDY    79  71  76 SW20G28   30.03S THUNDER
NEW ORLEANS LA PTCLDY    81  74  79 CALM      30.01F
OKLAHOMA CITY  CLOUDY    75  68  78 E6        30.01S
ALBUQUERQUE NM PTCLDY    72  56  57 NW8       30.17R
SALT LAKE CITY PTCLDY    85  40  20 SE7       29.94S
LOS ANGELES CA CLEAR     70  62  76 W8        29.82R
BOISE ID       CLEAR     85  42  22 CALM      29.81S
SEATTLE WA     CLEAR     76  58  53 N12       29.90R
$$

*** WEATHER ACROSS MANITOBA...SASKATCHEWAN AND ONTARIO ***
                ***ONTARIO***

CITY           SKY/WX    TMP DP  RH WIND       PRES   REMARKS
GERALDTON      CLEAR     59  50  72 SW3       30.07S
THUNDER BAY    CLEAR     55  52  88 NW3       30.08R
SIOUX LOOKOUT  PTCLDY    52  52 100 CALM      30.03S
TORONTO        MOCLDY    70  55  60 NE12G18   30.01S
BIG TROUT LK   CLEAR     61  57  88 SW3       29.95S
PICKLE LAKE    NOT AVBL
DRYDEN         PTCLDY    68  50  52 S7        30.03S
KENORA         PTCLDY    68  54  60 SE5       30.02S
$$
                *** MANITOBA***

CITY           SKY/WX    TMP DP  RH WIND       PRES   REMARKS
BRANDON        CLOUDY    63  57  82 VRB2      29.95S
DAUPHIN        CLEAR     61  55  82 S5        29.90F
ISLAND LAKE    PTCLDY    64  59  82 S5        29.93S
PILOT MOUND      N/A     59  55  88 SE8         N/A
THE PAS        PTCLDY    63  59  88 S5        29.84S
THOMPSON       LGT RAIN  63  61  94 E3        29.86F
WINNIPEG       CLEAR     64  57  77 S8        29.97S
LYNN LAKE      CLOUDY    61  59  94 MISG      29.85S
CHURCHILL      MOCLDY    55  46  71 SE9       29.99F
GILLAM         DRIZZLE   54  50  87 E5        29.94F
$$
                ***SASKATCHEWAN***

CITY           SKY/WX    TMP DP  RH WIND       PRES   REMARKS
ESTEVAN        CLEAR     63  59  88 SE5       29.94F
KINDERSLEY     PTCLDY    63  59  88 SE8       29.89S
LLOYDMINSTER   CLEAR     63  57  82 S6        29.84F
PRINCE ALBERT  PTCLDY    63  61  94 CALM      29.83F
REGINA         PTCLDY    61  57  88 S7        29.92S
YORKTON        MOCLDY    64  59  82 S8        29.90S  C1F1C2F2C3F3C4F4C5F5C6F6C7F7C8F8C9F9CaFaCbFbCcFcCdFdCe!



USA.gov is the U.S. government's official web portal to all federal, state and local government web resources and services.